Location: Calvatone
(45.1167°N, 10.4333°E)
Time: 11:39:48
(UTC+00:00)

NOSS 2-1 (D) - Pass Details

Date: 28 January 2023
Orbit: 418 x 1759 km, 63.3° (Epoch: 23 March)

Event Time Altitude Azimuth Distance (km) Brightness Sun altitude
Rises 17:11:20 0° 327° (NNW) 2,661 7.0 -9.3°
Reaches altitude 10° 17:13:20 10° 334° (NNW) 1,887 6.2 -9.7°
Maximum altitude 17:17:23 46° 49° (NE) 942 4.1 -10.4°
Drops below altitude 10° 17:22:54 10° 121° (ESE) 2,571 6.3 -11.3°
Sets 17:26:01 0° 127° (SE) 3,754 7.2 -11.8°
